{"data":{"norad_id":64067,"epoch":"2026-05-25T04:00:03.998880Z","epoch_age_seconds":64082,"freshness":"FRESH","line1":"1 64067U 25107D   26145.16671295 -.00001248  00000+0 -62294-5 0  9997","line2":"2 64067  43.0010 357.1224 0001744 265.6804 230.1384 15.70852601  6039","mean_motion":15.70852601,"eccentricity":0.0001744,"inclination_deg":43.001,"raan_deg":357.1224,"arg_perigee_deg":265.6804,"mean_anomaly_deg":230.1384,"bstar":-6.2294e-6,"rev_number":603,"period_min":91.669963119601,"perigee_km":355.28453224262,"apogee_km":357.63355934339,"semimajor_km":6734.596045793,"source":"CELESTRAK","updated_at":"2026-05-25T13:38:20.257865Z"}}